| time (UTC) | temp F | wind direction | speed MPH | gust MPH | rain 1hr in | rain 24hr in | rain mn in | humidity % | barometer mb |
| 20260505061242 | 54 | 338 | 5.0 | 5.0 | 0.00 | 0.10 | 0.00 | 1011.7 | |
| 20260505060240 | 53 | 311 | 7.0 | 5.0 | 0.00 | 0.10 | 0.00 | 1011.9 | |
| 20260505055242 | 52 | 290 | 3.0 | 5.0 | 0.00 | 0.10 | 0.00 | 1011.9 | |
| 20260505054241 | 51 | 294 | 4.0 | 5.0 | 0.00 | 0.10 | 0.00 | 1011.8 | |
| 20260505053240 | 51 | 293 | 8.0 | 6.0 | 0.00 | 0.10 | 0.00 | 1011.9 | |
| 20260505052243 | 52 | 293 | 6.0 | 6.0 | 0.00 | 0.10 | 0.00 | 1011.9 | |
| 20260505051245 | 52 | 281 | 3.0 | 6.0 | 0.00 | 0.10 | 0.00 | 1011.6 | |
| 20260505050243 | 52 | 325 | 5.0 | 5.0 | 0.00 | 0.10 | 0.00 | 1011.6 | |
| 20260505041253 | 52 | 354 | 3.0 | 2.0 | 0.00 | 0.10 | 0.00 | 1012.1 | |
| 20260505040256 | 52 | 300 | 5.0 | 4.0 | 0.00 | 0.10 | 0.00 | 1012.1 | |
| 20260505035242 | 52 | 349 | 4.0 | 7.0 | 0.00 | 0.10 | 0.00 | 1012.0 | |
| 20260505034245 | 52 | 335 | 5.0 | 4.0 | 0.00 | 0.10 | 0.00 | 1012.0 | |
| 20260505033247 | 52 | 322 | 6.0 | 5.0 | 0.00 | 0.10 | 0.00 | 1012.0 | |
| 20260505032243 | 52 | 266 | 5.0 | 4.0 | 0.00 | 0.10 | 0.00 | 1012.0 | |
| 20260505031245 | 52 | 325 | 3.0 | 4.0 | 0.00 | 0.10 | 0.00 | 1012.0 | |
| 20260505030248 | 52 | 305 | 7.0 | 10.0 | 0.00 | 0.10 | 0.00 | 1011.8 | |
| 20260505025243 | 52 | 304 | 8.0 | 8.0 | 0.00 | 0.10 | 0.00 | 1011.8 | |
| 20260505024240 | 52 | 321 | 9.0 | 9.0 | 0.00 | 0.10 | 0.00 | 1011.8 | |
| 20260505023240 | 53 | 21 | 4.0 | 9.0 | 0.00 | 0.10 | 0.00 | 1011.8 | |
| 20260505022240 | 53 | 319 | 8.0 | 4.0 | 0.00 | 0.10 | 0.00 | 1011.8 | |
| 20260505021241 | 53 | 283 | 3.0 | 4.0 | 0.00 | 0.10 | 0.00 | 1011.9 | |
| 20260505020244 | 53 | 352 | 5.0 | 5.0 | 0.00 | 0.10 | 0.00 | 1011.7 | |
| 20260505015245 | 53 | 359 | 7.0 | 8.0 | 0.00 | 0.10 | 0.00 | 1011.7 | |
| 20260505014248 | 54 | 318 | 7.0 | 7.0 | 0.00 | 0.10 | 0.00 | 1011.6 | |
| 20260505013244 | 53 | 323 | 6.0 | 4.0 | 0.00 | 0.10 | 0.00 | 1011.7 | |
| 20260505012241 | 53 | 295 | 5.0 | 5.0 | 0.00 | 0.10 | 0.00 | 1011.7 | |
| 20260505011244 | 54 | 336 | 5.0 | 4.0 | 0.00 | 0.10 | 0.00 | 1011.7 | |
| 20260505010243 | 54 | 342 | 6.0 | 5.0 | 0.00 | 0.10 | 0.00 | 1011.8 | |
| 20260505005243 | 54 | 309 | 6.0 | 6.0 | 0.00 | 0.10 | 0.00 | 1012.0 | |
| 20260505004245 | 55 | 308 | 4.0 | 3.0 | 0.00 | 0.10 | 0.00 | 1012.0 | |
| 20260505003246 | 54 | 305 | 2.0 | 4.0 | 0.00 | 0.10 | 0.00 | 1011.9 | |
| 20260505002243 | 54 | 326 | 5.0 | 3.0 | 0.00 | 0.10 | 0.00 | 1011.9 | |
| 20260505001240 | 54 | 339 | 4.0 | 3.0 | 0.00 | 0.10 | 0.00 | 1011.9 | |
| 20260505000239 | 54 | 336 | 2.0 | 4.0 | 0.00 | 0.10 | 0.00 | 1011.9 | |
| 20260504235240 | 54 | 30 | 2.0 | 1.0 | 0.00 | 0.10 | 0.00 | 1011.9 | |
| 20260504234239 | 54 | 162 | 0.0 | 1.0 | 0.00 | 0.10 | 0.00 | 1011.9 | |
| 20260504233242 | 54 | 205 | 1.0 | 0.0 | 0.00 | 0.10 | 0.00 | 1011.8 | |
| 20260504232244 | 54 | 295 | 0.0 | 0.0 | 0.00 | 0.10 | 0.00 | 1011.7 | |
| 20260504231241 | 55 | 295 | 2.0 | 0.0 | 0.00 | 0.10 | 0.00 | 1011.8 | |
| 20260504230240 | 55 | 242 | 1.0 | 1.0 | 0.00 | 0.10 | 0.00 | 1011.8 | |
| 20260504225240 | 54 | 24 | 0.0 | 0.0 | 0.00 | 0.10 | 0.00 | 1011.8 | |
| 20260504224240 | 55 | 24 | 0.0 | 0.0 | 0.00 | 0.10 | 0.00 | 1011.7 | |
| 20260504223241 | 55 | 24 | 0.0 | 0.0 | 0.00 | 0.10 | 0.00 | 1011.6 | |
| 20260504222244 | 56 | 24 | 0.0 | 0.0 | 0.00 | 0.10 | 0.00 | 1011.5 | |
| 20260504221246 | 56 | 24 | 0.0 | 0.0 | 0.00 | 0.10 | 0.00 | 1011.4 | |
| 20260504220241 | 56 | 24 | 2.0 | 0.0 | 0.00 | 0.10 | 0.00 | 1011.5 | |
| 20260504215240 | 56 | 13 | 0.0 | 0.0 | 0.09 | 0.02 | 0.10 | 1011.4 | |
| 20260504214240 | 56 | 194 | 0.0 | 0.0 | 0.09 | 0.02 | 0.10 | 1011.5 | |
| 20260504213243 | 56 | 210 | 0.0 | 2.0 | 0.09 | 0.02 | 0.10 | 1011.4 | |
| 20260504212245 | 57 | 135 | 2.0 | 2.0 | 0.09 | 0.02 | 0.10 | 1011.4 | |
| 20260504211245 | 57 | 107 | 1.0 | 2.0 | 0.09 | 0.02 | 0.10 | 1011.4 | |
| 20260504210248 | 57 | 162 | 2.0 | 2.0 | 0.09 | 0.02 | 0.10 | 1011.4 | |
| 20260504205245 | 57 | 212 | 2.0 | 0.0 | 0.00 | 0.02 | 0.10 | 1011.5 | |
| 20260504204243 | 57 | 193 | 4.0 | 2.0 | 0.00 | 0.02 | 0.10 | 1011.3 | |
| 20260504203240 | 57 | 73 | 0.0 | 0.0 | 0.00 | 0.02 | 0.10 | 1011.1 | |
| 20260504202241 | 57 | 124 | 4.0 | 5.0 | 0.00 | 0.02 | 0.10 | 1011.4 | |
| 20260504201240 | 58 | 59 | 6.0 | 3.0 | 0.00 | 0.02 | 0.07 | 1011.4 | |
| 20260504200243 | 58 | 105 | 2.0 | 3.0 | 0.00 | 0.02 | 0.04 | 1011.6 | |
| 20260504195246 | 59 | 249 | 6.0 | 6.0 | 0.00 | 0.02 | 0.01 | 1011.8 | |
| 20260504194242 | 60 | 256 | 5.0 | 7.0 | 0.00 | 0.02 | 0.01 | 1011.7 | |
| 20260504193243 | 61 | 235 | 5.0 | 3.0 | 0.00 | 0.02 | 0.01 | 1011.5 | |
| 20260504192245 | 62 | 252 | 7.0 | 3.0 | 0.00 | 0.02 | 0.01 | 1010.9 | |
| 20260504191248 | 64 | 283 | 5.0 | 6.0 | 0.00 | 0.02 | 0.01 | 1010.7 | |
| 20260504190250 | 64 | 257 | 3.0 | 0.0 | 0.00 | 0.02 | 0.01 | 1010.7 | |
| 20260504185253 | 64 | 169 | 1.0 | 2.0 | 0.00 | 0.02 | 0.01 | 1010.5 | |
| 20260504184256 | 64 | 98 | 3.0 | 2.0 | 0.00 | 0.02 | 0.01 | 1010.3 | |
| 20260504183252 | 64 | 142 | 5.0 | 4.0 | 0.00 | 0.02 | 0.01 | 1010.2 | |
| 20260504182255 | 65 | 169 | 5.0 | 4.0 | 0.00 | 0.02 | 0.01 | 1010.2 | |
| 20260504181257 | 65 | 132 | 5.0 | 6.0 | 0.00 | 0.02 | 0.01 | 1009.7 | |
| 20260504180300 | 66 | 174 | 6.0 | 7.0 | 0.00 | 0.02 | 0.01 | 1009.6 | |
| 20260504175300 | 66 | 226 | 2.0 | 1.0 | 0.00 | 0.02 | 0.01 | 1009.4 | |
| 20260504174300 | 66 | 150 | 3.0 | 3.0 | 0.00 | 0.02 | 0.01 | 1009.5 | |
| 20260504173303 | 66 | 122 | 3.0 | 3.0 | 0.00 | 0.02 | 0.01 | 1009.5 | |
| 20260504172257 | 66 | 121 | 4.0 | 4.0 | 0.00 | 0.02 | 0.01 | 1009.7 | |
| 20260504171251 | 66 | 214 | 4.0 | 2.0 | 0.00 | 0.02 | 0.01 | 1009.6 | |
| 20260504170249 | 66 | 205 | 2.0 | 3.0 | 0.00 | 0.02 | 0.01 | 1009.8 | |
| 20260504160245 | 67 | 127 | 0.0 | 0.0 | 0.00 | 0.02 | 0.01 | 1009.9 | |
| 20260504150249 | 64 | 198 | 5.0 | 5.0 | 0.01 | 0.02 | 0.01 | 1010.4 | |
| 20260504141244 | 65 | 198 | 1.0 | 2.0 | 0.00 | 0.02 | 0.00 | 1010.8 | |
| 20260504140246 | 66 | 222 | 5.0 | 8.0 | 0.00 | 0.02 | 0.00 | 1010.9 | |
| 20260504130243 | 68 | 120 | 8.0 | 6.0 | 0.00 | 0.02 | 0.00 | 1010.8 | |
| 20260504120243 | 68 | 150 | 9.0 | 18.0 | 0.00 | 0.02 | 0.00 | 1010.7 | |
| 20260504110243 | 71 | 201 | 6.0 | 6.0 | 0.00 | 0.02 | 0.00 | 1010.9 | |
| 20260504100242 | 70 | 159 | 4.0 | 6.0 | 0.00 | 0.02 | 0.00 | 1011.4 | |
| 20260504081248 | 66 | 316 | 4.0 | 2.0 | 0.00 | 0.02 | 0.00 | 1012.1 | |
| 20260504080243 | 65 | 4 | 4.0 | 2.0 | 0.00 | 0.02 | 0.00 | 1012.1 | |
| 20260504070247 | 63 | 333 | 3.0 | 7.0 | 0.00 | 0.02 | 0.00 | 1012.7 |